Charlottetown, Prince Edward Island

4:21 AM ADT on July 26, 2017 (GMT -0300)
Charlottetown

Weather History for CYYG - April, 2013

Change the Weather History Date:

Friday, April 26, 2013

  Actual Average Record
Temperature  
Mean Temperature 37 °F -  
Max Temperature 41 °F 55 °F 59 °F (2012)
Min Temperature 33 °F 38 °F 21 °F (2016)
Degree Days  
Heating Degree Days 28    
Moisture  
Dew Point 34 °F    
Average Humidity 83    
Maximum Humidity 100    
Minimum Humidity 69    
Precipitation  
Precipitation 0.02 in 0.13 in - ()
Sea Level Pressure  
Sea Level Pressure 30.38 in    
Wind  
Wind Speed 12 mph ()    
Max Wind Speed 21 mph    
Max Gust Speed 26 mph    
Visibility 13.8 miles    
Events Rain    
Averages and records for this station are not official NWS values.
T = Trace of Precipitation, MM = Missing Value Source: Averaged Metar Reports

Daily Weather History Graph

Daily Weather History Graph

Search for Another Location

Airport or City:

Trip Planner

Search our weather history database for the weather conditions in past years. The results will help you decide how hot, cold, wet, or windy it might be!

Date:

Astronomy

Apr. 26, 2013 Rise Set
Actual Time 6:06 AM ADT 8:14 PM ADT
Civil Twilight 5:33 AM ADT 8:47 PM ADT
Nautical Twilight 4:53 AM ADT 9:28 PM ADT
Astronomical Twilight 4:08 AM ADT 10:13 PM ADT
Moon 9:37 PM ADT 6:27 AM ADT
Length of Visible Light 15h 14m
Length of Day
14h 08m
Full, 99% of the Moon is Illuminated
Apr 26
Full
May 2
Last Quarter
May 9
New
May 18
First Quarter
May 25
Full

Hourly Weather History & Observations

Time (ADT) Temp. Windchill Dew Point Humidity Pressure Visibility Wind Dir Wind Speed Gust Speed Precip Events Conditions
12:00 AM 50.0 °F - 50.0 °F 100% 30.21 in 8.0 mi West 5.8 mph - N/A Rain Light Rain Showers
1:00 AM 50.0 °F - 48.2 °F 94% 30.25 in 10.0 mi NW 8.1 mph - N/A Rain Light Rain Showers
2:00 AM 44.6 °F 39.7 °F 37.4 °F 76% 30.27 in 15.0 mi North 9.2 mph - N/A Rain Light Rain Showers
3:00 AM 40 °F - 38 °F 88% 30.27 in 15 mi NNE 19.6 mph - - Rain Light Rain Showers
3:00 AM 41.0 °F 31.6 °F 37.4 °F 87% 30.27 in 15.0 mi NNE 20.7 mph - N/A   Overcast
4:00 AM 41.0 °F 31.9 °F 33.8 °F 76% 30.32 in 15.0 mi NNE 19.6 mph 26.5 mph N/A   Overcast
5:00 AM 41.0 °F 32.2 °F 32.0 °F 70% 30.34 in 15.0 mi NE 18.4 mph 24.2 mph N/A   Overcast
6:00 AM 39.2 °F 29.6 °F 32.0 °F 75% 30.35 in 15.0 mi NNE 19.6 mph 26.5 mph N/A   Overcast
7:00 AM 39.2 °F 30.8 °F 32.0 °F 75% 30.39 in 15.0 mi NNE 15.0 mph - N/A   Overcast
8:00 AM 37.4 °F 28.5 °F 32.0 °F 81% 30.40 in 15.0 mi North 15.0 mph 21.9 mph N/A   Overcast
9:00 AM 38 °F - 32 °F 71% 30.40 in 15 mi North 12.7 mph - -   Mostly Cloudy
9:00 AM 37.4 °F 28.9 °F 32.0 °F 81% 30.40 in 15.0 mi North 13.8 mph - N/A   Mostly Cloudy
10:00 AM 39.2 °F 31.6 °F 32.0 °F 75% 30.41 in 15.0 mi North 12.7 mph - N/A   Mostly Cloudy
11:00 AM 39.2 °F 30.2 °F 33.8 °F 81% 30.42 in 15.0 mi NNE 17.3 mph - N/A   Mostly Cloudy
12:00 PM 41.0 °F 35.2 °F 33.8 °F 76% 30.45 in 15.0 mi North 9.2 mph 18.4 mph N/A   Mostly Cloudy
1:00 PM 41.0 °F 33.1 °F 33.8 °F 76% 30.45 in 15.0 mi North 15.0 mph 20.7 mph N/A   Mostly Cloudy
2:00 PM 41.0 °F 32.8 °F 33.8 °F 76% 30.44 in 15.0 mi NNE 16.1 mph 24.2 mph N/A   Mostly Cloudy
3:00 PM 39 °F - 32 °F 69% 30.44 in 15 mi NNE 18.4 mph - -   Mostly Cloudy
3:00 PM 39.2 °F 30.2 °F 32.0 °F 75% 30.44 in 15.0 mi North 17.3 mph - N/A   Mostly Cloudy
4:00 PM 37.4 °F 29.3 °F 32.0 °F 81% 30.44 in 15.0 mi North 12.7 mph 19.6 mph N/A   Overcast
5:00 PM 37.4 °F 28.2 °F 32.0 °F 81% 30.42 in 15.0 mi North 16.1 mph - N/A Rain Light Rain
5:55 PM 35.6 °F 25.5 °F 32.0 °F 87% 30.42 in 10.0 mi North 17.3 mph - N/A Rain Light Rain
6:00 PM 35.6 °F 26.6 °F 32.0 °F 87% 30.42 in 10.0 mi North 13.8 mph 21.9 mph N/A Rain Light Rain
7:00 PM 33.8 °F 25.3 °F 32.0 °F 93% 30.42 in 15.0 mi North 11.5 mph 17.3 mph N/A Rain Light Rain
8:00 PM 33.8 °F 24.8 °F 32.0 °F 93% 30.43 in 15.0 mi North 12.7 mph 19.6 mph N/A   Mostly Cloudy
9:00 PM 34 °F - 32 °F 88% 30.43 in 15 mi North 11.5 mph - -   Partly Cloudy
9:00 PM 33.8 °F 26.4 °F 32.0 °F 93% 30.43 in 15.0 mi North 9.2 mph - N/A   Mostly Cloudy
10:00 PM 33.8 °F 24.8 °F 32.0 °F 93% 30.41 in 15.0 mi North 12.7 mph 18.4 mph N/A   Mostly Cloudy
10:46 PM 33.8 °F 25.3 °F 32.0 °F 93% 30.40 in 15.0 mi North 11.5 mph - N/A   Overcast
11:00 PM 33.8 °F 25.8 °F 32.0 °F 93% 30.40 in 10.0 mi North 10.4 mph - N/A   Light Drizzle
11:45 PM 33.8 °F 27.0 °F 33.8 °F 100% 30.39 in 4.0 mi NNW 8.1 mph - N/A   Light Drizzle